Flag for Canada Weather past 2 weeks in Regina, Saskatchewan, Canada

Now
55 °F

Sprinkles. Overcast.


Feels Like: 52 °F
Forecast: N/A
Wind: 12 mph from Southeast

Location: Regina Weather Station

Current Time: Sep 30, 2014 at 4:58:22 PM

Latest Report: Sep 30, 2014 at 4:00 PM


Visibility: 15 mi

Pressure: 29.60 "Hg

Humidity: 94%

Dew point: 54 °F

Location of ReginaLocation

Historic Weather in Regina — Graph

°F

Regina temperature yesterday

Maximum temperature yesterday: 52 °F (at 3:00 PM)
Minimum temperature yesterday: 43 °F (at 7:00 AM)
Average temperature yesterday: 47 °F

Past Weeks' High & Low Weather Summary

 TemperatureHumidityPressure
High90 °F (Sep 25, 3:00 PM)100% (Sep 17, 6:00 AM)30.46 "Hg (Sep 17, 6:00 AM)
Low36 °F (Sep 21, 5:04 AM)31% (Sep 15, 4:00 PM)29.51 "Hg (Sep 18, 6:00 PM)
Average57 °F73%29.96 "Hg
* Reported Sep 15 4:00 PM — Sep 30 4:00 PM, Regina, Weather by CustomWeather, © 2014

Note: Actual official high and low records may vary slightly from our data, if they occured in-between our weather recording intervals... More about our weather records

Advertising

Regina weather history for previous 24 hours

 ConditionsComfort  
Time TempWeatherWind HumidityBarometerVisibility
4:00 PM
Sep 30
55 °FSprinkles. Overcast.12 mph94%29.60 "Hg15 mi
3:00 PM55 °FSprinkles. Overcast.12 mph94%29.59 "Hg15 mi
2:50 PM57 °FSprinkles. Overcast.14 mph82%29.59 "Hg15 mi
2:00 PM57 °FOvercast.9 mph88%29.61 "Hg15 mi
1:00 PM57 °FOvercast.16 mph82%29.63 "Hg15 mi
12:00 PM55 °FOvercast.20 mph88%29.65 "Hg10 mi
11:46 AM55 °FOvercast.21 mph88%29.65 "Hg10 mi
11:00 AM54 °FLow clouds.16 mph94%29.65 "Hg10 mi
9:00 AM52 °FSprinkles. Fog.14 mph100%29.70 "Hg3 mi
8:49 AM52 °FSprinkles. Fog.15 mph94%29.70 "Hg3 mi
8:00 AM50 °FDrizzle. Fog.15 mph100%29.71 "Hg2 mi
7:00 AM50 °FDrizzle. Fog.16 mph100%29.73 "Hg2 mi
6:51 AM50 °FDrizzle. Fog.16 mph100%29.73 "Hg1 mi
6:00 AM50 °FLight rain. Fog.14 mph100%29.75 "Hg6 mi
5:00 AM50 °FLight rain. Fog.17 mph94%29.77 "Hg6 mi
4:00 AM48 °FLight rain. Fog.14 mph100%29.79 "Hg6 mi
3:00 AM48 °FLow clouds.15 mph94%29.81 "Hg15 mi
2:00 AM48 °FLow clouds.16 mph94%29.83 "Hg15 mi
1:00 AM48 °FLow clouds.15 mph87%29.85 "Hg15 mi
12:00 AM48 °FOvercast.16 mph87%29.88 "Hg15 mi
11:00 PM
Sep 29
48 °FOvercast.21 mph82%29.88 "Hg15 mi
10:00 PM48 °FOvercast.22 mph82%29.91 "Hg15 mi
9:00 PM50 °FOvercast.18 mph76%29.93 "Hg15 mi
8:00 PM50 °FOvercast.21 mph76%29.94 "Hg15 mi
7:00 PM50 °FMostly cloudy.20 mph76%29.97 "Hg15 mi
6:00 PM50 °FMostly cloudy.17 mph76%29.98 "Hg15 mi
5:00 PM50 °FPartly sunny.22 mph76%30.01 "Hg15 mi
4:00 PM50 °FScattered clouds.17 mph76%30.05 "Hg15 mi
Weather by CustomWeather, © 2014

See weather overviewHow to use our weather pages